Location: Boiro
(42.6475°N, 8.8834°W)
Time: 07:12:34
(UTC+01:00)

Vanguard 1 - Pass Details

Date: 08 December 2021
Orbit: 652 x 3830 km, 34.2° (Epoch: 21 January)

Event Time Altitude Azimuth Distance (km) Brightness Sun altitude
Rises 22:25:38 0° 209° (SSW) 5,991 14.2 -47.5°
Reaches altitude 10° 22:29:30 10° 201° (SSW) 5,372 13.8 -48.2°
Enters shadow 22:35:36 26° 184° (S) 4,694 13.3 -49.3°
Maximum altitude 22:44:57 38° 140° (SE) 4,569 - -51.0°
Drops below altitude 10° 23:04:55 10° 83° (E) 6,913 - -54.4°
Sets 23:10:42 0° 77° (ENE) 7,820 - -55.4°
